#timestamp,LO_Frequency,Hit,StdDev 
1591495215.3,286046995.2,N
1591495235.1,286046997.0,N
1591495255.9,286046996.9,N
1591495275.7,286046997.2,N
1591495295.5,286046998.7,N
1591495315.4,286047000.8,N
1591495335.2,286047000.1,N
1591495355.0,286047000.3,N
1591495356.0,286047000.3,N
1591495375.8,286046999.5,N
1591495395.6,286046999.1,N
1591495415.5,286046996.8,N
1591495435.3,286046996.2,N
1591495455.2,286046997.1,N
1591495475.9,286046996.8,N
1591495495.7,286046997.8,N
1591495515.6,286046997.3,N
1591495535.4,286046997.4,N
1591495555.2,286046998.6,N
1591495575.1,286046998.5,N
1591495576.0,286046998.5,N
1591495595.8,286046998.4,N
1591495615.7,286046996.6,N
1591495635.5,286046998.5,N
1591495655.3,286046996.9,N
1591495675.2,286047000.8,N
1591495695.0,286046998.0,N
1591495695.9,286046998.0,N
1591495715.8,286046997.5,N
1591495735.6,286046999.3,N
1591495755.4,286046999.0,N
1591495775.3,286046998.8,N
1591495795.1,286046996.9,N
1591495815.8,286046998.7,N
1591495835.7,286046998.9,N
1591495855.5,286046998.9,N
1591495875.4,286046997.8,N
1591495895.2,286046998.4,N
1591495915.0,286046996.7,Y
1591495915.9,286046996.7,P
1591495935.8,286047001.1,N
1591495955.6,286047000.2,N
1591495975.5,286047000.4,N
1591495995.3,286046996.5,N
1591496015.1,286046996.5,N
1591496035.9,286046996.6,N
1591496055.7,286047001.0,N
1591496075.6,286047000.6,N
1591496095.4,286047000.7,N
1591496115.2,286046999.7,N
1591496135.1,286047000.4,N
1591496136.0,286047000.4,N
1591496155.8,286047000.4,N
1591496175.7,286046999.7,N
1591496195.5,286046999.8,N
1591496215.3,286047002.3,N
1591496235.2,286047002.4,N
1591496255.0,286047000.1,N
1591496255.9,286047000.1,N
1591496275.8,286047000.4,N
1591496295.6,286046998.4,N
1591496315.4,286046999.0,N
1591496335.3,286046996.9,N
1591496355.1,286046996.9,N
1591496375.8,286046999.7,N
1591496395.7,286047002.1,N
1591496415.5,286047000.0,N
1591496435.4,286047000.9,N
1591496455.2,286046999.7,N
1591496475.0,286046999.9,N
1591496475.9,286046999.9,N
1591496495.8,286047001.5,N
1591496515.6,286047001.6,N
1591496535.5,286047001.7,N
1591496555.3,286047002.8,N
1591496575.1,286047000.3,N
1591496595.9,286046998.1,N
1591496615.7,286046998.1,N
1591496635.5,286047000.2,N
1591496655.4,286046998.2,N
1591496675.2,286047002.0,N
1591496695.1,286047003.8,N
1591496696.0,286047003.8,N
1591496715.8,286047003.9,N
1591496735.6,286047000.4,N
1591496755.5,286047002.0,N
1591496775.3,286047004.2,N
1591496795.1,286047002.0,N
1591496815.9,286047003.7,N
1591496835.7,286047004.4,N
1591496855.6,286047000.9,N
1591496875.4,286046998.6,N
1591496895.2,286047001.1,N
1591496915.1,286047001.8,N
1591496916.0,286047001.8,N
1591496935.8,286047001.4,N
1591496955.7,286047003.6,N
1591496975.5,286047006.0,Y
1591496995.3,286047002.8,P
1591497015.2,286047002.1,N
1591497035.0,286047005.4,P
1591497035.9,286047005.4,Y
1591497055.8,286046999.1,P
1591497075.6,286046997.0,N
1591497095.4,286046998.5,N
1591497115.3,286047002.2,N
1591497135.1,286046998.5,N
1591497155.9,286047001.0,N
1591497175.7,286047000.6,N
1591497195.5,286047002.0,N
1591497215.4,286046998.1,N
1591497235.2,286047002.8,N
1591497255.0,286047001.3,N
1591497256.0,286047001.3,N
1591497275.8,286047002.5,N
1591497298.1,286047001.1,N
1591497315.2,286047000.8,N
1591497335.1,286047001.4,N
1591497336.0,286047001.4,N
1591497355.8,286047000.1,N
1591497375.7,286047002.0,N
1591497395.5,286047002.7,N
1591497415.3,286047000.6,N
1591497435.2,286047002.7,N
1591497455.0,286047001.1,N
1591497455.9,286047001.1,N
1591497475.8,286047002.0,N
1591497495.6,286047000.0,N
1591497515.4,286047000.8,N
1591497535.3,286046997.0,N
1591497555.1,286047000.0,N
1591497575.8,286047000.0,N
1591497595.7,286047000.8,N
1591497615.5,286047000.2,N
1591497635.4,286047000.8,N
1591497655.2,286047001.1,N
1591497675.0,286047000.5,N
1591497675.9,286047000.5,N
1591497695.8,286047000.7,N
1591497715.6,286046998.6,N
1591497735.5,286046997.0,N
1591497755.3,286046996.9,N
1591497775.1,286046997.3,N
1591497795.9,286046998.3,N
1591497815.7,286046999.4,N
1591497835.5,286046996.5,N
1591497855.4,286046992.2,Y
1591497875.2,286046994.5,P
1591497895.1,286046990.2,P
1591497896.0,286046990.2,N
1591497915.8,286047001.1,N
1591497935.6,286047001.9,N
1591497955.5,286047004.4,N
1591497975.3,286047002.1,N
1591497995.2,286047000.0,N
1591498015.9,286047001.3,N
1591498035.7,286046996.7,N
1591498055.6,286047000.3,N
1591498075.4,286047002.5,N
1591498095.2,286047004.1,N
1591498115.1,286047001.5,N
1591498116.0,286047001.5,N
1591498135.8,286047002.2,N
1591498155.7,286047000.0,N
1591498175.5,286047000.2,N
1591498195.3,286047002.7,N
1591498215.2,286047001.2,N
1591498235.0,286047000.6,N
1591498235.9,286047000.6,N
1591498255.8,286046999.8,N
1591498275.6,286047004.4,N
1591498295.4,286047004.3,N
1591498315.3,286047002.4,N
1591498335.1,286046998.6,N
1591498355.8,286047002.3,N
1591498375.7,286046998.1,N
1591498395.5,286047002.8,N
1591498415.4,286047001.0,N
1591498435.2,286047000.1,N
1591498455.0,286047001.0,N
1591498455.9,286047001.0,N
1591498475.8,286047001.1,N
1591498495.6,286047001.9,N
1591498515.5,286047001.9,N
1591498535.3,286047002.5,N
1591498555.1,286047004.4,N
1591498575.9,286047002.4,N
1591498595.7,286046998.2,N
1591498615.6,286047000.6,N
1591498635.4,286047001.1,N
1591498655.2,286047001.1,N
1591498675.1,286046998.4,N
1591498676.0,286046998.4,N
1591498695.8,286046998.5,N
1591498715.7,286047000.7,N
1591498735.5,286047002.2,N
1591498755.3,286047000.6,N
1591498775.2,286046999.2,N
1591498795.0,286047000.5,N
1591498795.9,286047000.5,N
